カタリナ彗星

257P/Catalina (2013)

English version
Home page
Updated on May 7, 2015

---------------------------------------------------------------------

・ プロフィール

符号 257P/2012 F4
検出日 2012年3月21日
検出光度 19.6等
検出者 N. Howes, E. Guido, A. Tripp and Giovanni Sostero (Povoletto, Italy)

・ 写真集

・ 軌道要素

Epoch 2013 May 28.0 TT = JDT 2456440.5
T 2013 June 4.43585 TT                                  MPC
q   2.1290405            (2000.0)            P               Q
n   0.13553694     Peri.  117.81370     +0.80037142     +0.57727331
a   3.7534526      Node   207.86732     -0.59469995     +0.79860363
e   0.4327781      Incl.   20.24478     +0.07574674     +0.17025794
P   7.27
From 1058 observations 2005 Apr. 17-2014 Feb. 20, mean residual 0".5.

・ 星図

・ 光度変化

        m1 = 11.8 + 5 logΔ + 10.0 log r(t + 70)

---------------------------------------------------------------------

軌道要素はM.P.E.C. 2014-J58に掲載されたものです。
星図はステラナビゲータ Ver.8 (アストロアーツ) で作成したものです。
光度グラフはComet for Windowsで作成したものです。

---------------------------------------------------------------------

Copyright(C) Seiichi Yoshida (comet@aerith.net). All rights reserved.